This is the latest recevied weather packets stored in our database for station/object ZL1CTS-13. If no packets are shown the sender has not sent any weather packets the latest 10 day(s).
| Time | Temp. | Humidity | Pressure | Rain* | Wind** | Luminosity | Snow |
|---|---|---|---|---|---|---|---|
| 1777701604 | 13.89° C | 88% | 1023.4 hPa | 0 mm | - | - | - |
| 1777701004 | 13.89° C | 84% | 1023.4 hPa | 0 mm | - | - | - |
| 1777700405 | 15° C | 81% | 1023.4 hPa | 0 mm | - | - | - |
| 1777699805 | 16.11° C | 76% | 1023.3 hPa | 0 mm | - | - | - |
| 1777699204 | 17.22° C | 72% | 1023.4 hPa | 0 mm | - | - | - |
| 1777698604 | 18.89° C | 71% | 1023.3 hPa | 0 mm | - | - | - |
| 1777698004 | 19.44° C | 67% | 1023.3 hPa | 0 mm | - | - | - |
| 1777697404 | 20° C | 63% | 1023.4 hPa | 0 mm | - | - | - |
| 1777696803 | 20.56° C | 63% | 1023.3 hPa | 0 mm | - | - | - |
| 1777696204 | 20.56° C | 62% | 1023.2 hPa | 0 mm | - | - | - |
| 1777695603 | 20.56° C | 60% | 1023.3 hPa | 0 mm | - | - | - |
| 1777695004 | 21.11° C | 59% | 1023.3 hPa | 0 mm | - | - | - |
| 1777694404 | 20.56° C | 59% | 1023.4 hPa | 0 mm | - | - | - |
| 1777693804 | 20.56° C | 61% | 1023.5 hPa | 0 mm | - | - | - |
| 1777693204 | 20.56° C | 58% | 1023.5 hPa | 0 mm | - | - | - |
| 1777692604 | 21.67° C | 59% | 1023.5 hPa | 0 mm | - | - | - |
| 1777692004 | 21.11° C | 60% | 1023.7 hPa | 0 mm | - | - | - |
| 1777691404 | 21.11° C | 59% | 1023.7 hPa | 0 mm | - | - | - |
| 1777690805 | 21.11° C | 59% | 1023.8 hPa | 0 mm | - | - | - |
| 1777690204 | 20.56° C | 61% | 1023.8 hPa | 0 mm | - | - | - |
| 1777689603 | 20.56° C | 61% | 1023.9 hPa | 0 mm | - | - | - |
| 1777689007 | 20.56° C | 60% | 1023.9 hPa | 0 mm | - | - | - |
| 1777688406 | 20.56° C | 60% | 1024 hPa | 0 mm | - | - | - |
| 1777687804 | 20.56° C | 60% | 1024 hPa | 0 mm | - | - | - |
| 1777687204 | 20.56° C | 60% | 1024.2 hPa | 0 mm | - | - | - |
* Rain latest hour (hover to see other rain measurements)
** Current wind speed in m/s (hover to see current wind gust speed)